Tracking 19796 objects as of 19-Jul-2019
HD Live streaming from Space Station
objects crossing your sky now

ARIANE 2 DEB

Track ARIANE 2 DEB now!


NORAD ID: 40786
Int'l Code: 1989-006CF
Perigee: 682.0 km
Apogee: 35,582.3 km
Inclination: 8.1 °
Period: 636.2 minutes
Semi major axis: 24503 km
RCS: Unknown
Launch date: January 27, 1989
Source: France (FR)
Launch site: FRENCH GUIANA (FRGUI)

Note: This is SATELLITE DEBRIS
aabbcc
Your satellite tracking list
Your tracking list is empty




NASA's NSSDC Master Catalog

Two Line Element Set (TLE):
1 40786U 89006CF  19198.85227395  .00000083  00000-0  43678-2 0  9998
2 40786   8.1338  68.7657 7121596 132.3706 353.3491  2.26344904127879
Source of the keplerian elements: AFSPC